Regional Weather Roundup
Issued by NWS

Home | Current Version | Previous Version | Graphics & Text | Print | Product List | Glossary Off
Versions: 1 2 3 4 5 6 7 8 9 10 11 12 13 14 15 16 17 18 19 20 21 22 23 24 25 26 27 28 29 30 31 32 33 34 35 36 37 38 39 40 41 42 43 44 45 46 47 48 49 50

000
ASUS43 KMKX 281724
RWRWI

WISCONSIN REGIONAL WEATHER ROUNDUP
NATIONAL WEATHER SERVICE MILWAUKEE/SULLIVAN WI
1200 PM CDT THU MAY 28 2015

NOTE: "FAIR" INDICATES FEW OR NO CLOUDS BELOW 12,000 FEET WITH NO
SIGNIFICANT WEATHER AND/OR OBSTRUCTIONS TO VISIBILITY.

WIZ001-002-006>008-014>016-023>028-281800-
NORTHWEST WISCONSIN

CITY           SKY/WX    TMP DP  RH WIND       PRES   REMARKS
SUPERIOR ARPT  CLOUDY    43  41  93 NE9G16    30.12S
ASHLAND        MOSUNNY   57  49  74 N8        30.08F
HAYWARD        SUNNY     80  54  40 S15       30.06F HX  80
SIREN          MOSUNNY   81  50  34 SW9       30.04F HX  80
CUMBERLAND     SUNNY     79  54  41 SW12      30.07F
RICE LAKE      SUNNY     81  53  37 SW7       30.08F HX  81
CHETEK         SUNNY     81  56  42 MISG      30.07F HX  81
LADYSMITH      SUNNY     79  60  51 S5        30.11S HX  80
EAU CLAIRE     SUNNY     81  56  42 S15       30.08S HX  81
MENOMONIE      SUNNY     80  59  48 S7        30.08S HX  80
NEW RICHMOND   SUNNY     79  55  43 SW10      30.06F HX  80
OSCEOLA        SUNNY     81  55  40 SW7G16    30.08S HX  80
$$

WIZ003>005-009-010-017-018-281800-
NORTH CENTRAL WISCONSIN

CITY           SKY/WX    TMP DP  RH WIND       PRES   REMARKS
MANITOWISH WTR MOSUNNY   78  60  52 S14       30.10F
ARBOR VITAE    SUNNY     80  57  45 SW12      30.11F HX  80
WOODRUFF       SUNNY     80  57  45 SW12      30.11F HX  80
RHINELANDER    SUNNY     80  55  42 SW12G20   30.13F HX  80
EAGLE RIVER    SUNNY     79  50  35 S9G17     30.12F
LAND O LAKES   SUNNY     81  48  31 SW9G17    30.12F HX  80
PHILLIPS       MOSUNNY   78  58  50 SW10G16   30.10S
TOMAHAWK       SUNNY     78  60  53 SW7       30.13S HX  80
MEDFORD        SUNNY     75  61  60 S8        30.13F
MERRILL        SUNNY     77  62  59 SW8       30.14S
$$

WIZ029-030-035-036-043>047-281800-
CENTRAL WISCONSIN

CITY           SKY/WX    TMP DP  RH WIND       PRES   REMARKS
WAUSAU         SUNNY     78  59  51 SW8       30.12S
MOSINEE        SUNNY     75  64  69 SW8       30.15S
MARSHFIELD     SUNNY     81  57  43 SW7       30.13S HX  81
STEVENS POINT  SUNNY     78  59  52 W6        30.14F
WAUPACA        SUNNY     82  60  45 S7        30.14F HX  82
WAUTOMA        SUNNY     83  60  45 SW6       30.14F HX  83
WISC RAPIDS    SUNNY     82  57  42 S13       30.14F HX  82
CAMP DOUGLAS   MOSUNNY   81  63  54 VRB6      30.12F HX  82
$$

WIZ011>013-019>022-031-037>040-048>050-281800-
NORTHEAST WISCONSIN

CITY           SKY/WX    TMP DP  RH WIND       PRES   REMARKS
ANTIGO         SUNNY     76  65  69 S10       30.15S
SHAWANO        SUNNY     78  63  59 S5        30.14F
OCONTO         SUNNY     74  61  63 S8        30.14F
STURGEON BAY   SUNNY     72  63  73 S10       30.18F
GREEN BAY      SUNNY     79  65  62 S7        30.14F HX  81
MANITOWOC      SUNNY     67  58  72 SE8       30.18S
APPLETON       SUNNY     77  59  53 SW8       30.16F
CLINTONVILLE   SUNNY     77  61  57 SW6       30.14F
OSHKOSH        MOSUNNY   80  60  50 W6        30.15F HX  81
$$

WIZ032>034-041-042-053>061-281800-
SOUTHWEST WISCONSIN

CITY           SKY/WX    TMP DP  RH WIND       PRES   REMARKS
LA CROSSE      MOSUNNY   81  61  50 S7        30.10F HX  82
SPARTA         MOSUNNY   81  54  39 SW8       30.12F HX  80
VIROQUA        MOSUNNY   78  59  51 SW12      30.15F
BOSCOBEL       MOSUNNY   81  59  47 VRB6      30.14S HX  81
PRAIRIE DU CHI PTSUNNY   79  55  44 SE8       30.13S
PLATTEVILLE    MOSUNNY   78  58  50 S9        30.16S
$$

WIZ056-057-062-063-064-067-068-281800-
SOUTH CENTRAL WISCONSIN

CITY           SKY/WX    TMP DP  RH WIND       PRES   REMARKS
REEDSBURG      MOSUNNY   78  60  55 S6        30.14S
BARABOO/DELLS  MOSUNNY   77  58  51 S8        30.15S
LONE ROCK      MOSUNNY   79  59  50 S9        30.14F HX  80
MINERAL POINT  MOSUNNY   77  55  47 S9        30.17S
MADISON        PTSUNNY   79  56  45 S12G17    30.16F HX  80
MIDDLETON      MOSUNNY   81  55  41 SW9       30.17S HX  80
WATERTOWN      MOSUNNY  N/A N/A N/A S6        30.16F
MONROE         MOSUNNY   77  57  50 S10       30.17F
JANESVILLE     SUNNY     79  55  44 SW7       30.17F
$$

WIZ051-052-058>065-066-070>072-281800-
SOUTHEAST WISCONSIN

CITY           SKY/WX    TMP DP  RH WIND       PRES   REMARKS
MILWAUKEE      PTSUNNY   80  60  50 SE10      30.18F HX  81
WAUKESHA       PTSUNNY   77  57  50 S6        30.19F
MILWAUKEE/TIMM MOSUNNY   79  54  41 S6        30.19F
RACINE         SUNNY     77  59  53 SE12      30.21S
BURLINGTON     SUNNY     77  57  49 S5        30.18F
KENOSHA        SUNNY     79  58  48 S7        30.19F HX  80
FOND DU LAC    MOSUNNY   79  61  53 MISG      30.16F HX  80
SHEBOYGAN      SUNNY     79  61  53 SW7       30.17S HX  80
WEST BEND      MOSUNNY   79  55  44 CALM      30.17F
JUNEAU         MOSUNNY   76  61  57 S7        30.18F
$$

LSZ147-162-281800-
LAKE SUPERIOR

STATION/POSITION TIME  TEMP    WIND        PRES    WAVE
                       AIR SEA DIR/SP/G            HT/PER
                 (UTC) (F)     (DEG/KT/KT) (MB)    (FT/S)
W MID LAKE BUOY  1650   39 37   50/ 14/ 17   N/A     3/ 4
DEVILS ISLAND    1700   40      60/ 17/ 18   N/A
PORT WING        1640   41      30/ 16/ 18   N/A
SAXON HARBOR     1600   46        CALM       N/A
$$

LMZ867-665-643>646-281800-
LAKE MICHIGAN

STATION/POSITION TIME  TEMP    WIND        PRES    WAVE
                       AIR SEA DIR/SP/G            HT/PER
                 (UTC) (F)     (DEG/KT/KT) (MB)    (FT/S)
CHAMBERS ISLAND  1600   55     360/  6/  6   N/A
N MID LAKE BUOY  1650   40 37  130/  4/  6   N/A     1/ 3
NORTHPORT PIER   1600   51     130/  9/ 10   N/A
SISTER BAY       1618   60     350/  5/  6   N/A
ALGOMA LAKESHORE 1608          190/  2/  5   N/A
KEWAUNEE LAKESHO 1600   49     150/  5/  7   N/A
SHEBOYGAN LAKESH 1700   61     170/ 16/ 16   N/A
PORT WASHINGTON  1630   61     110/  3/ 15   N/A
ATWATER BUOY     1700   56 47  140/ 12/ 12   N/A
MILWAUKEE LAKESH 1700          130/  9/ 11   N/A
S MID LAKE BUOY  1650   46 38  160/  8/  8   N/A     0
KENOSHA   LAKESH 1700          170/ 11/ 13   N/A
$$

TC  - TEMPERATURE IN CELSIUS
VSB - VISIBILITY IN STATUTE MILES
WCI - WIND CHILL INDEX
HX  - HEAT INDEX



USA.gov is the U.S. government's official web portal to all federal, state and local government web resources and services.